Weather History for Hamilton, OH

Change the Weather History Date:

Thursday, January 19, 2012

  Actual Average (KCVG) Record (KCVG)
Temperature  
Mean Temperature 29 °F 31 °F  
Max Temperature 37 °F 39 °F 72 °F (1907)
Min Temperature 19 °F 23 °F -24 °F (1994)
Degree Days  
Heating Degree Days 36 34  
Month to date heating degree days 646  
Since 1 July heating degree days 2565  
Cooling Degree Days 0 0  
Month to date cooling degree days 0  
Year to date cooling degree days 0  
Moisture  
Dew Point 18 °F    
Average Humidity 65    
Maximum Humidity 72    
Minimum Humidity 54    
Precipitation  
Precipitation 0.00 in 0.10 in 1.57 in (1907)
Month to date precipitation 1.86  
Year to date precipitation 1.86  
Snow  
Snow 0.00 in 0.20 in 5.50 in (1956)
Month to date snowfall 3.7  
Since 1 July snowfall 9.3  
Snow Depth -    
Sea Level Pressure  
Sea Level Pressure 30.05 in    
Wind  
Wind Speed 7 mph (WNW)    
Max Wind Speed 13 mph    
Max Gust Speed 21 mph    
Visibility 10 miles    
Events      
T = Trace of Precipitation, MM = Missing Value Source: NWS Daily Summary

Daily Weather History Graph

Daily Weather History Graph

Search for Another Location

Airport:

Trip Planner

Search our weather history database for the weather conditions in past years. The results will help you decide how hot, cold, wet, or windy it might be!

Date:

Astronomy

Jan. 19, 2012 Rise Set
Actual Time 7:54 AM EST 5:42 PM EST
Civil Twilight 7:25 AM EST 6:12 PM EST
Nautical Twilight 6:52 AM EST 6:44 PM EST
Astronomical Twilight 6:20 AM EST 7:17 PM EST
Moon 4:29 AM EST (1/19) 2:14 PM EST (1/19)
Length of Visible Light 10h 46m
Length of Day
9h 48m
Waning Crescent, 16% of the Moon is Illuminated
Jan 19
Waning Crescent
Jan 23
New
Jan 30
First Quarter
Feb 7
Full
Feb 14
Last Quarter

Hourly Weather History & Observations

Time (EST) Temp. Windchill Dew Point Humidity Pressure Visibility Wind Dir Wind Speed Gust Speed Precip Events Conditions
12:53 AM 26.1 °F 21.9 °F 16.0 °F 66% 30.08 in 10.0 mi SE 3.5 mph - N/A   Clear
1:53 AM 26.1 °F 21.9 °F 17.1 °F 69% 30.09 in 10.0 mi South 3.5 mph - N/A   Partly Cloudy
2:53 AM 25.0 °F 20.7 °F 17.1 °F 72% 30.08 in 10.0 mi Variable 3.5 mph - N/A   Clear
3:53 AM 26.1 °F 21.9 °F 17.1 °F 69% 30.05 in 10.0 mi South 3.5 mph - N/A   Clear
4:53 AM 28.0 °F 21.7 °F 17.1 °F 63% 30.01 in 10.0 mi SSW 5.8 mph - N/A   Clear
5:53 AM 28.0 °F - 18.0 °F 66% 30.00 in 10.0 mi Calm Calm - N/A   Clear
6:53 AM 28.9 °F 21.1 °F 18.0 °F 64% 29.99 in 10.0 mi SSW 8.1 mph - N/A   Clear
7:53 AM 28.9 °F 20.4 °F 18.0 °F 64% 29.99 in 10.0 mi SSW 9.2 mph - N/A   Mostly Cloudy
8:53 AM 28.9 °F 21.1 °F 18.0 °F 64% 29.99 in 10.0 mi SW 8.1 mph - N/A   Mostly Cloudy
9:53 AM 30.9 °F 22.8 °F 19.9 °F 64% 30.01 in 10.0 mi SW 9.2 mph - N/A   Overcast
10:53 AM 32.0 °F 23.0 °F 19.9 °F 61% 30.02 in 10.0 mi WSW 11.5 mph 17.3 mph N/A   Overcast
11:53 AM 34.0 °F 26.0 °F 21.0 °F 59% 30.01 in 10.0 mi WSW 10.4 mph - N/A   Overcast
1:53 PM 37.0 °F 31.0 °F 21.9 °F 54% 29.95 in 10.0 mi West 8.1 mph - N/A   Mostly Cloudy
2:53 PM 36.0 °F 27.5 °F 21.9 °F 57% 29.98 in 10.0 mi West 12.7 mph 20.7 mph N/A   Overcast
3:53 PM 35.1 °F 30.1 °F 23.0 °F 61% 29.96 in 10.0 mi WNW 5.8 mph - N/A   Mostly Cloudy
4:53 PM 34.0 °F 26.0 °F 23.0 °F 64% 29.99 in 10.0 mi NW 10.4 mph - N/A   Overcast
5:53 PM 33.1 °F 24.4 °F 24.1 °F 70% 30.02 in 9.0 mi WNW 11.5 mph - 0.00 in   Overcast
6:53 PM 28.9 °F 18.6 °F 19.9 °F 69% 30.06 in 10.0 mi NW 12.7 mph 19.6 mph N/A   Overcast
7:53 PM 27.0 °F 18.0 °F 19.0 °F 72% 30.09 in 10.0 mi NNW 9.2 mph - N/A   Overcast
8:09 PM 26.6 °F 16.8 °F 17.6 °F 69% 30.07 in 10.0 mi NNW 10.4 mph - N/A   Overcast
8:27 PM 26.6 °F 16.8 °F 17.6 °F 69% 30.09 in 10.0 mi NNW 10.4 mph - N/A   Overcast
8:53 PM 25.0 °F 15.5 °F 16.0 °F 69% 30.11 in 10.0 mi North 9.2 mph - N/A   Overcast
9:53 PM 24.1 °F 12.5 °F 14.0 °F 65% 30.14 in 10.0 mi North 12.7 mph - N/A   Overcast
10:53 PM 21.0 °F 12.4 °F 12.0 °F 68% 30.17 in 10.0 mi North 6.9 mph - N/A   Overcast
11:05 PM 21.2 °F 12.6 °F 12.2 °F 68% 30.15 in 10.0 mi North 6.9 mph - N/A   Scattered Clouds
11:35 PM 21.2 °F 10.9 °F 10.4 °F 63% 30.16 in 10.0 mi North 9.2 mph - N/A   Mostly Cloudy
11:53 PM 19.0 °F 8.2 °F 9.0 °F 65% 30.20 in 10.0 mi North 9.2 mph - N/A   Overcast